Regional Weather Roundup
Issued by NWS

Home | Current Version | Previous Version | Text Only | Print | Product List | Glossary Off
Versions: 1 2 3 4 5 6 7 8 9 10 11 12 13 14 15 16 17 18 19 20 21 22 23 24 25 26 27 28 29 30 31 32 33 34 35 36 37 38 39 40 41 42 43 44 45 46 47 48 49 50

000
ASUS43 KIND 261709
RWRIN

WEATHER ROUNDUP FOR INDIANA
NATIONAL WEATHER SERVICE INDIANAPOLIS IN
1200 PM EST THU FEB 26 2015

NOTE: "FAIR" INDICATES FEW OR NO CLOUDS BELOW 12,000 FEET WITH NO
SIGNIFICANT WEATHER AND/OR OBSTRUCTIONS TO VISIBILITY.

* - STATION DOES NOT REPORT WEATHER SUCH AS PRECIPITATION OR FOG.

+ - STATION NOT QUALITY CONTROLLED BY THE NATIONAL WEATHER SERVICE.
    USE DATA WITH CAUTION...ESPECIALLY DEWPOINT AND RELATIVE
    HUMIDITY OBSERVATIONS.

INZ001>003-010>013-019-020-261800-
NORTHWEST INDIANA

CITY           SKY/WX    TMP DP  RH WIND       PRES   REMARKS
GARY /AIRPORT/ LGT SNOW  19   7  58 NE14G25   30.22R WCI   6
KNOX *+          N/A     16  -2  45 N10       30.18R WCI   3
LA PORTE +     MOSUNNY   17   9  70 NE7       30.19R HAZE    WCI   8
MICHIGAN CITY+ FLURRIES  14   3  62 N13       30.21R WCI   0
MONTICELLO +   CLOUDY    18   8  65 NE9       30.17R WCI   6
RENSSELAER +   PTSUNNY   19  14  79 N9        30.19R HAZE    WCI   9
VALPARAISO     MIX PCPN  15   6  67 N10       30.19R WCI   2

$$

LMZ046-743>745-261800-
SOUTHERN LAKE MICHIGAN

STATION/POSITION TIME  TEMP WIND        PRES
                       AIR  DIR/SP/G
                 (UTC) (F)  (DEG/KT/KT) (MB)
MICHIGAN CITY    1700   11   20/ 15/ 18   N/A

$$

INZ004-005-014>016-021>024-261800-
NORTH CENTRAL INDIANA

CITY           SKY/WX    TMP DP  RH WIND       PRES   REMARKS
ELKHART        PTSUNNY   16   3  57 N5        30.18R WCI   9
GOSHEN         CLOUDY    14   6  70 N8        30.16R WCI   3
LOGANSPORT +   CLOUDY    19   9  63 NE6       30.16R WCI  11
PERU/GRISSOM   PTSUNNY   17   6  63 NE13      30.14R WCI   3
ROCHESTER +    PTSUNNY   21  12  68 NE8       30.16R WCI  12
SOUTH BEND     PTSUNNY   15   6  67 N13       30.19R WCI   1
WARSAW +       PTSUNNY   16   7  67 N8        30.15R WCI   5

$$

INZ006>009-017-018-025>027-261800-
NORTHEAST INDIANA

CITY           SKY/WX    TMP DP  RH WIND       PRES   REMARKS
ANGOLA *+      PTSUNNY   12   0  57 N5        30.14R WCI   4
AUBURN +       MOSUNNY   16   5  62 NE8       30.15S WCI   5
FORT WAYNE     PTSUNNY   14   5  67 NE14      30.15R WCI  -1
HUNTINGTON +   CLOUDY    15   2  58 NE9       30.14S WCI   3

$$

INZ028-029-035-036-043>045-051>053-261800-
WEST CENTRAL INDIANA

CITY           SKY/WX    TMP DP  RH WIND       PRES   REMARKS
CRAWFORDSVL +  CLOUDY    17   6  62 NE10      30.14R WCI   5
GREENCASTLE +  CLOUDY    19   9  63 N7        30.12R WCI  10
LAFAYETTE      LGT SNOW  19  12  74 N7        30.16S WCI  10
TERRE HAUTE    CLOUDY    22  12  65 N12       30.15R WCI  10

$$

INZ030>032-037>040-046>048-054>057-064-065-261800-
CENTRAL INDIANA

CITY           SKY/WX    TMP DP  RH WIND       PRES   REMARKS
ANDERSON       PTSUNNY   16   7  67 N17G29    30.12R WCI   0
CP ATTERBURY + CLOUDY    21  12  68 N8        30.12R WCI  12
COLUMBUS       PTSUNNY   19  10  68 N13       30.12R WCI   7
FRANKFORT +    FLURRIES  19  11  73 N8        30.15R WCI   8
GREENWOOD *+   PTSUNNY   18   9  68 N10       30.11R WCI   6
INDIANAPOLIS   PTSUNNY   19   9  65 NE13      30.11R WCI   6
-EAGLE CREEK   CLOUDY    18  10  71 NE8       30.11R WCI   8
KOKOMO *+      MOSUNNY   18   9  68 NE10      30.15R WCI   6
MARION +       CLOUDY    15   8  72 NE14      30.13S WCI   0
MT COMFORT *+  MOSUNNY   19   3  49 NE13      30.12R WCI   7
SHELBYVILLE    CLOUDY    19   9  65 NE13      30.11R WCI   6
ZIONSVILLE +   CLOUDY    17   8  69 NE12      30.12R WCI   4

$$

INZ033-034-041-042-049-050-058-059-261800-
EAST CENTRAL INDIANA

CITY           SKY/WX    TMP DP  RH WIND       PRES   REMARKS
MUNCIE         CLOUDY    15   7  70 NE15      30.11R WCI   0

$$

INZ060-061-067>069-081>083-085>088-261800-
SOUTHWEST INDIANA

CITY           SKY/WX    TMP DP  RH WIND       PRES   REMARKS
EVANSVILLE     CLOUDY    30  21  69 NW13      30.12R WCI  20
HUNTINGBURG *+ MOSUNNY   30  19  64 NW13      30.10R WCI  20
WASHINGTON +   CLOUDY    24  14  66 N10       30.12R WCI  13

$$

INZ062-063-066-070>080-084-089>092-261800-
SOUTH CENTRAL AND SOUTHEAST INDIANA

CITY           SKY/WX    TMP DP  RH WIND       PRES   REMARKS
BLOOMINGTON    CLOUDY    22  14  71 N10       30.09R WCI  11
NORTH VERNON + MOSUNNY   21  12  68 N12       30.08R WCI   9
SEYMOUR +      CLOUDY    23  14  68 N12       30.11R WCI  12

$$



USA.gov is the U.S. government's official web portal to all federal, state and local government web resources and services.